sat.trackr.live / text

‹ back to catalog

QIANFAN-108

NORAD 66050 · 2025-233T

PAYLOAD ACTIVE UNKNOWN

§ Identity

Operator
Country
PRC
Launch date
2025-10-17
Launch site
TAISC
Launch vehicle
Mass (kg)
RCS (m²)

External: N2YO · Heavens-Above · Gunter

§ Orbital elements

Epoch: 2026-05-25T02:17:40.864704Z

Period
106.59 min
Inclination
89.0020°
Eccentricity
0.0001974
Mean motion
13.51006934 rev/d
Perigee alt
1,067.1 km
Apogee alt
1,070.0 km
Semi-major
7,446.7 km
B*
1.7909e-4
RAAN
45.5072°
Arg perigee
81.4285°
Mean anomaly
278.7089°
Rev number
3,007

§ Raw data

QIANFAN-1081 66050U 25233T   26145.09561186  .00000128  00000+0  17909-3 0  99952 66050  89.0020  45.5072 0001974  81.4285 278.7089 13.51006934 30073

JSON: /api/v1/satellites/66050 · /tle

For live sub-satellite position, see the globe view (requires WebGL).

§ Visibility from observer

Set your observer location to see the next 7 days of passes ≥ 10°. The values pass through the URL so the page stays shareable.

No JS? Fill the form by hand. The geolocation button needs JavaScript.